Вернуться в каталог

ATLAS 5 CENTAUR DEB

LostHEO
NORAD 46860·DEBRIS·🇺🇸 United States

Запущен Oct 17, 2018 с Cape Canaveral Space Force Station

Loading…

Ближайшие Пролёты (ближайшие 24 часа)

TLE

УстаревшееSource: Space-Track

Эпоха: Jan 24, 2025, 11:04 UTC

1 46860U 18079DR  25024.46124850 -.00000082  00000-0  00000-0 0  9993
2 46860  12.8407 109.8096 5086858 165.5802 217.1634  1.65575031 25563

Отслеживайте ATLAS 5 CENTAUR DEB в реальном времени с AllMySat

Download on the App Store